Weather History for KRIL - May, 2014

Change the Weather History Date:

Wednesday, May 7, 2014

  Actual Average Record
Temperature  
Mean Temperature 54 °F 54 °F  
Max Temperature 67 °F 70 °F 88 °F (1934)
Min Temperature 40 °F 38 °F 21 °F (1968)
Degree Days  
Heating Degree Days 11 11  
Month to date heating degree days 69 84  
Since 1 July heating degree days 6542 6381  
Cooling Degree Days 0 0  
Month to date cooling degree days 0 0  
Year to date cooling degree days 0 0  
Growing Degree Days 2 (Base 50)    
Moisture  
Dew Point 16 °F    
Average Humidity 30    
Maximum Humidity 45    
Minimum Humidity 14    
Precipitation  
Precipitation 0.00 in 0.04 in 0.99 in (1979)
Month to date precipitation 0.00 0.35  
Year to date precipitation 2.83 4.26  
Sea Level Pressure  
Sea Level Pressure 29.57 in    
Wind  
Wind Speed 12 mph (WSW)    
Max Wind Speed 35 mph    
Max Gust Speed 47 mph    
Visibility 10 miles    
Events      
T = Trace of Precipitation, MM = Missing Value Source: NWS Daily Summary

Daily Weather History Graph

Daily Weather History Graph

Search for Another Location

Airport or City:

Trip Planner

Search our weather history database for the weather conditions in past years. The results will help you decide how hot, cold, wet, or windy it might be!

Date:

Astronomy

May. 07, 2014 Rise Set
Actual Time 6:04 AM MDT 8:10 PM MDT
Civil Twilight 5:35 AM MDT 8:40 PM MDT
Nautical Twilight 4:58 AM MDT 9:16 PM MDT
Astronomical Twilight 4:19 AM MDT 9:56 PM MDT
Moon 1:20 PM MDT (5/7) 2:03 AM MDT (5/7)
Length of Visible Light 15h 05m
Length of Day
14h 05m
First Quarter, 56% of the Moon is Illuminated
May 7
First Quarter
May 14
Full
May 21
Last Quarter
May 28
New
Jun 5
First Quarter

Hourly Weather History & Observations

Time (MDT) Temp. Windchill Dew Point Humidity Pressure Visibility Wind Dir Wind Speed Gust Speed Precip Events Conditions
12:53 AM 59.0 °F - 10.9 °F 15% 29.49 in 10.0 mi SSW 10.4 mph - N/A   Clear
1:53 AM 57.0 °F - 12.0 °F 17% 29.50 in 10.0 mi South 5.8 mph - N/A   Clear
2:53 AM 55.9 °F - 10.0 °F 16% 29.52 in 10.0 mi Calm Calm - N/A   Clear
3:53 AM 50.0 °F - 14.0 °F 24% 29.54 in 10.0 mi South 8.1 mph - N/A   Scattered Clouds
4:53 AM 46.9 °F - 16.0 °F 29% 29.55 in 10.0 mi SW 5.8 mph - N/A   Clear
5:53 AM 41.0 °F 36.4 °F 21.9 °F 47% 29.58 in 10.0 mi ENE 6.9 mph - N/A   Clear
6:53 AM 42.1 °F 37.7 °F 21.9 °F 45% 29.60 in 10.0 mi ENE 6.9 mph - N/A   Clear
7:53 AM 50.0 °F - 21.9 °F 33% 29.58 in 10.0 mi ENE 5.8 mph - N/A   Clear
8:53 AM 55.9 °F - 19.9 °F 25% 29.56 in 10.0 mi NW 4.6 mph - N/A   Clear
9:53 AM 57.9 °F - 21.0 °F 24% 29.55 in 10.0 mi WNW 6.9 mph - N/A   Scattered Clouds
11:53 AM 64.0 °F - 19.0 °F 18% 29.47 in 10.0 mi West 25.3 mph 33.4 mph N/A   Clear
12:53 PM 64.9 °F - 18.0 °F 16% 29.47 in 10.0 mi West 21.9 mph 31.1 mph N/A   Clear
1:53 PM 61.0 °F - 12.0 °F 15% 29.49 in 10.0 mi WSW 21.9 mph 41.4 mph N/A   Mostly Cloudy
2:53 PM 60.1 °F - 16.0 °F 18% 29.53 in 10.0 mi WSW 26.5 mph 39.1 mph N/A   Partly Cloudy
3:10 PM 59.0 °F - 15.1 °F 18% 29.68 in 10.0 mi West 17.3 mph 47.2 mph N/A   Squalls
3:53 PM 63.0 °F - 12.0 °F 14% 29.53 in 10.0 mi SSW 15.0 mph 23.0 mph N/A   Partly Cloudy
4:53 PM 60.1 °F - 10.9 °F 14% 29.57 in 10.0 mi SW 16.1 mph 33.4 mph N/A   Clear
5:53 PM 60.1 °F - 12.0 °F 15% 29.60 in 10.0 mi West 19.6 mph 25.3 mph N/A   Partly Cloudy
6:53 PM 57.9 °F - 14.0 °F 18% 29.62 in 10.0 mi West 18.4 mph - N/A   Mostly Cloudy
7:53 PM 55.0 °F - 15.1 °F 21% 29.63 in 10.0 mi WSW 18.4 mph - N/A   Partly Cloudy
8:53 PM 52.0 °F - 17.1 °F 25% 29.65 in 10.0 mi SW 10.4 mph - N/A   Clear
9:53 PM 51.1 °F - 17.1 °F 26% 29.67 in 10.0 mi WNW 9.2 mph 20.7 mph N/A   Scattered Clouds
10:53 PM 46.9 °F - 19.9 °F 34% 29.69 in 10.0 mi West 10.4 mph - N/A   Clear
11:53 PM 46.0 °F 44.8 °F 19.9 °F 35% 29.70 in 10.0 mi SE 3.5 mph - N/A   Clear